{"data":{"norad_id":55377,"intl_designator":"2023-013AY","name":"STARLINK-5567","alt_names":[],"object_type":"PAYLOAD","status":"ACTIVE","operator":null,"country":"US","launch_date":"2023-01-26","launch_site_code":"AFETR","launch_vehicle":null,"mission":null,"orbit_class":"UNKNOWN","rcs_meters":null,"size_class":null,"mass_kg":null,"dimensions":null,"purposes":["comms"],"wikipedia_slug":null,"has_3d_model":false,"image_url":null,"decayed_at":null,"tle_current":{"epoch":"2026-05-24T16:33:43.953984Z","epoch_age_seconds":112303,"freshness":"FRESH","line1":"1 55377U 23013AY  26144.69009206  .00000001  00000+0  95758-5 0  9994","line2":"2 55377  43.0033 249.1376 0001819 278.2101  81.8544 15.27577187183129","mean_motion":15.27577187,"eccentricity":0.0001819,"inclination_deg":43.0033,"raan_deg":249.1376,"arg_perigee_deg":278.2101,"mean_anomaly_deg":81.8544,"bstar":9.5758e-6,"rev_number":18312,"period_min":94.266922303809,"perigee_km":481.80946790351,"apogee_km":484.30557046959,"semimajor_km":6861.1945191866,"source":"CELESTRAK","updated_at":"2026-05-25T13:38:17.769571Z"}}}